ARIANE 44LP+ R/B, 22913

Orbit data source: Space-Track

ARIANE 44LP+ R/B, 22913 is space debris in LEO originally from a launch on Sat, 20 Nov 1993 UTC launched from the French Guiana (FRGUI). Debris objects in space refer to the collection of defunct objects orbiting the Earth. Examples of debris include non-operational satellites, rocket bodies, and fragments generated from explosions, collisions, or faulty payload assembly.

Not visible in the next 10 days
Identifier
22913, 1993-073C
Orbit
LEO
Country
Flag of FRFR
Related business
Manufacturer
Ae/LesM
Mission
Spacecraft
Bus & Motor
ARIANE H10+/S, Unknown motor
Mass
2,260 kg wet, 2,080 kg dry
Launch date (UTC)
1993-11-20 (33 years ago)
Launch vehicle
Unknown
Launch site
French Guiana (FRGUI)
Object type
Payload
Rocket body
Debris
Shape & HBR
Cyl, 7.2 m
Radar Cross Section
31.447 m², Large (>1 m²)

Expand to show TLE details & history
Last TLE update: 22 hours ago

TLE from 22 hours ago
0 ARIANE 44LP+ R/B
1 22913U 93073C   26266.02532513  .00226505 -13879-4  11932-2 0  9993
2 22913   6.7336 161.7849 1197235 304.8511  44.4720 13.38856144726559
Epoch: 2026-09-23T00:36Z
TLE epoch observation values (Epoch: 2026-09-23T00:36:28.091Z)
Latitude
0.00001°
Longitude
150.78554°
Altitude
530.792 km
Speed
7.888 km/s
True Right ascension
10h 47m 08s
True Declination
0° 00' 00"
Sunlit
Object was in daylight at epoch
Visualization orbit readout
Latitude
Unknown
Longitude
Unknown
Altitude
Unknown
Speed
Unknown
Apparent Right ascension
Unknown
Apparent Declination
Unknown
Sunlit
N/A
Visualization observer readout
Local Sidereal Time
15:21:30
Azimuth
Unknown
Elevation
Unknown
Doppler factor
Unknown
Orbital elements
Apogee altitude
2,017.07 km
Perigee altitude
221.799 km
Semi-major axis
7,497.572 km
Eccentricity
0.11972
Inclination
6.7336°
RAAN
161.7849°
Arg. of periapsis
304.8511°
True anomaly
55.16291°
Mean anomaly
44.472°
Eccentric anomaly
49.70394°
Mean motion
3.3432 °/min
Orbital period
107.68 mins
BSTAR
0.0011932
Loading maneuver chart data...
Computing Atmospheric mass density...
Loading historical data...
Loading historical data...
Loading historical data...
Loading historical data...
Loading historical data...
Loading historical data...
Loading historical data...

Documentation

Showing up to 5 results
|